Retour au catalogue

STARLINK-4145

ActifCommunicationsVLEO
NORAD 53137·PAYLOAD·🇺🇸 United States

Lancé Jul 17, 2022 depuis Cape Canaveral Space Force Station

Loading…

Prochains Passages (prochaines 24 heures)

TLE

FraisSource: CelesTrak SupGP

Époque: Sep 15, 2026, 01:44 UTC

1 53137C 22083F   26258.07270833 -.00048935  00000+0 -14002-2 0  2584
2 53137  53.1586  31.5851 0001188  88.5877 292.7522 15.35420708    18

Suivez STARLINK-4145 en temps réel avec AllMySat

Download on the App Store